Ketchikan, AK

12:19 AM AKST on December 16, 2018 (GMT -0900)
Ketchikan International

Weather History for PAKT - September, 2018

Change the Weather History Date:

Wednesday, September 26, 2018

  Actual Average Record
Temperature  
Mean Temperature 54 °F -  
Max Temperature 55 °F 57 °F 67 °F (1954)
Min Temperature 53 °F 44 °F 29 °F (1972)
Degree Days  
Heating Degree Days 11    
Growing Degree Days 4 (Base 50)    
Moisture  
Dew Point 53 °F    
Average Humidity 95    
Maximum Humidity 100    
Minimum Humidity 93    
Precipitation  
Precipitation 0.32 in - - ()
Sea Level Pressure  
Sea Level Pressure 30.28 in    
Wind  
Wind Speed 7 mph (SE)    
Max Wind Speed 16 mph    
Max Gust Speed 21 mph    
Visibility 3 miles    
Events Fog , Rain    
Averages and records for this station are not official NWS values.
T = Trace of Precipitation, MM = Missing Value Source: NWS Daily Summary

Daily Weather History Graph

Daily Weather History Graph

Search for Another Location

Airport or City:

Astronomy

Sep. 26, 2018 Rise Set
Actual Time 6:40 AM AKDT 6:34 PM AKDT
Civil Twilight 6:03 AM AKDT 7:11 PM AKDT
Nautical Twilight 5:20 AM AKDT 7:54 PM AKDT
Astronomical Twilight 4:35 AM AKDT 8:38 PM AKDT
Moon 7:40 PM AKDT (9/26) 8:15 AM AKDT (9/26)
Length of Visible Light 13h 07m
Length of Day
11h 54m
Full, 97% of the Moon is Illuminated
Sep 26
Full
Oct 2
Last Quarter
Oct 8
New
Oct 16
First Quarter
Oct 24
Full

Hourly Weather History & Observations

Time (AKDT) Temp. Dew Point Humidity Pressure Visibility Wind Dir Wind Speed Gust Speed Precip Events Conditions
12:41 AM 55.0 °F 53.1 °F 93% 30.32 in 7.0 mi SE 5.8 mph - 0.01 in Rain Light Rain
12:53 AM 55.0 °F 53.1 °F 93% 30.33 in 7.0 mi SE 5.8 mph - 0.01 in Rain Light Rain
1:00 AM 54.0 °F 53.1 °F 97% 30.32 in 7.0 mi SSE 3.5 mph - 0.00 in Rain Light Rain
1:16 AM 54.0 °F 52.0 °F 93% 30.33 in 4.0 mi SE 6.9 mph - 0.02 in Rain Light Rain
1:27 AM 54.0 °F 52.0 °F 93% 30.33 in 4.0 mi SE 5.8 mph - 0.03 in Rain Light Rain
1:37 AM 54.0 °F 52.0 °F 93% 30.33 in 4.0 mi SE 6.9 mph - 0.05 in Rain Light Rain
1:53 AM 54.0 °F 52.0 °F 93% 30.33 in 4.0 mi SE 6.9 mph - 0.07 in Rain Light Rain
2:10 AM 54.0 °F 52.0 °F 93% 30.33 in 5.0 mi SE 6.9 mph - 0.02 in Rain Light Rain
2:30 AM 54.0 °F 52.0 °F 93% 30.32 in 5.0 mi SE 9.2 mph - 0.05 in Rain Light Rain
2:53 AM 54.0 °F 52.0 °F 93% 30.32 in 6.0 mi SE 6.9 mph - 0.07 in Rain Light Rain
3:53 AM 54.0 °F 52.0 °F 93% 30.31 in 10.0 mi SE 8.1 mph - 0.02 in Rain Light Rain
4:53 AM 54.0 °F 52.0 °F 93% 30.30 in 4.0 mi SE 9.2 mph - 0.03 in Rain Light Rain
5:30 AM 54.0 °F 52.0 °F 93% 30.29 in 2.5 mi SE 10.4 mph - 0.03 in Rain Light Rain
5:37 AM 54.0 °F 52.0 °F 93% 30.29 in 3.0 mi SE 11.5 mph - 0.04 in Rain Light Rain
5:53 AM 54.0 °F 52.0 °F 93% 30.29 in 2.5 mi SE 10.4 mph - 0.05 in Rain Light Rain
6:08 AM 53.6 °F 51.8 °F 94% 30.28 in 2.5 mi SE 12.7 mph - N/A Rain Light Rain
6:53 AM 53.6 °F 51.8 °F 94% 30.27 in 3.0 mi SE 13.8 mph 20.7 mph N/A Rain Light Rain
7:06 AM 54.0 °F 52.0 °F 93% 30.26 in 2.5 mi SE 13.8 mph - 0.01 in Rain Light Rain
7:13 AM 54.0 °F 52.0 °F 93% 30.26 in 3.0 mi ESE 13.8 mph - 0.02 in Rain Rain
7:53 AM 53.6 °F 51.8 °F 94% 30.26 in 2.0 mi SE 16.1 mph - N/A Rain Rain
8:50 AM 53.6 °F 51.8 °F 94% 30.26 in 3.0 mi SE 16.1 mph - N/A Rain Rain
8:53 AM 53.6 °F 51.8 °F 94% 30.26 in 3.0 mi SE 16.1 mph - N/A Rain Rain
9:53 AM 53.6 °F 51.8 °F 94% 30.26 in 3.0 mi SE 15.0 mph - N/A Rain Rain
10:53 AM 53.6 °F 53.6 °F 100% 30.26 in 2.0 mi SE 9.2 mph - N/A Rain Light Rain
11:53 AM 53.6 °F 53.6 °F 100% 30.26 in 3.0 mi SE 10.4 mph - N/A Rain Light Rain
12:53 PM 53.6 °F 53.6 °F 100% 30.26 in 2.0 mi SE 9.2 mph - N/A Rain Light Rain
1:49 PM 55.4 °F 53.6 °F 94% 30.25 in 3.0 mi SE 9.2 mph - N/A Rain Light Rain
1:53 PM 55.4 °F 53.6 °F 94% 30.25 in 3.0 mi SSE 8.1 mph - N/A Rain Light Rain
2:53 PM 55.4 °F 53.6 °F 94% 30.26 in 3.0 mi SE 6.9 mph - N/A Rain Light Rain
3:53 PM 55.4 °F 53.6 °F 94% 30.25 in 3.0 mi SSE 5.8 mph - N/A Rain Light Rain
4:53 PM 55.0 °F 53.1 °F 93% 30.25 in 3.0 mi SSE 5.8 mph - 0.02 in Rain Light Rain
5:53 PM 55.0 °F 54.0 °F 96% 30.25 in 4.0 mi SSE 5.8 mph - 0.03 in Rain Light Rain
6:53 PM 55.0 °F 54.0 °F 96% 30.25 in 4.0 mi South 3.5 mph - 0.02 in Rain Light Rain
7:53 PM 55.4 °F 53.6 °F 94% 30.25 in 4.0 mi SSE 3.5 mph - N/A Rain Light Rain
8:53 PM 55.0 °F 54.0 °F 96% 30.26 in 6.0 mi SE 4.6 mph - 0.00 in   Overcast
9:12 PM 55.0 °F 54.0 °F 96% 30.25 in 2.5 mi SSE 3.5 mph - N/A   Overcast
9:19 PM 55.0 °F 54.0 °F 96% 30.25 in 2.0 mi SSE 3.5 mph - N/A   Overcast
9:26 PM 55.0 °F 54.0 °F 96% 30.25 in 1.5 mi SE 4.6 mph - N/A   Overcast
9:41 PM 55.0 °F 54.0 °F 96% 30.25 in 0.8 mi Calm Calm - N/A   Overcast
9:53 PM 55.0 °F 53.1 °F 93% 30.26 in 1.0 mi SE 3.5 mph - N/A   Overcast
10:00 PM 55.0 °F 53.1 °F 93% 30.26 in 0.8 mi SE 3.5 mph - N/A   Mist
10:18 PM 54.0 °F 54.0 °F 100% 30.26 in 0.5 mi SE 4.6 mph - N/A Fog Fog
10:27 PM 55.0 °F 54.0 °F 96% 30.26 in 0.5 mi ESE 3.5 mph - N/A Fog Fog
10:49 PM 53.6 °F 53.6 °F 100% 30.27 in 0.2 mi SE 3.5 mph - N/A Fog Fog
10:53 PM 54.0 °F 54.0 °F 100% 30.27 in 0.5 mi SE 3.5 mph - N/A Fog Fog
11:30 PM 54.0 °F 54.0 °F 100% 30.27 in 2.5 mi Calm Calm - N/A   Overcast
11:53 PM 54.0 °F 54.0 °F 100% 30.27 in 1.5 mi Calm Calm - N/A   Overcast